Location: Gugi
(45.4667°N, 11.1000°E)
Time: 19:46:59
(UTC+00:00)

CENTAUR R/B - Pass Details

Date: 17 November 2019
Orbit: 779 x 1409 km, 63.4° (Epoch: 01 December)

Event Time Altitude Azimuth Distance (km) Brightness Sun altitude
Rises 17:11:01 0° 310° (NW) 3,891 6.2 -15.2°
Reaches altitude 10° 17:14:22 10° 326° (NW) 3,046 5.4 -15.8°
Maximum altitude 17:19:50 21° 14° (NNE) 2,459 4.4 -16.7°
Enters shadow 17:23:15 17° 45° (NE) 2,826 4.4 -17.3°
